Location: Wawayanda State Park
(41.1833°N, 74.4333°W)
Time: 17:27:43
(UTC-04:00)

Landsat 7 - Visible Passes

Search period start: 27 May 2018 00:00
Search period end: 06 June 2018 00:00
Orbit: 701 x 703 km, 98.2° (Epoch: 27 May)

Date Brightness Start Highest point End Pass type
(mag) Time Alt. Az. Time Alt. Az. Time Alt. Az.
27 May 5.6 21:23:18 10° ESE 21:26:16 17° ENE 21:29:19 10° NNE visible
27 May 4.3 23:02:11 39° SSW 23:03:34 54° W 23:08:14 10° NNW visible
28 May 4.4 22:06:30 26° ESE 22:08:38 42° ENE 22:13:08 10° N visible
28 May 5.7 23:45:23 18° WSW 23:46:33 20° W 23:50:03 10° NW visible
29 May 5.9 21:11:57 10° E 21:14:09 13° ENE 21:16:23 10° NNE visible
29 May 3.9 22:49:42 41° S 22:51:17 72° WSW 22:56:04 10° NNW visible
30 May 4.8 21:54:02 20° ESE 21:56:28 32° ENE 22:00:41 10° N visible
30 May 5.3 23:32:54 23° WSW 23:34:11 26° W 23:38:12 10° NW visible
31 May 6.1 21:02:00 10° ENE 21:02:05 10° ENE 21:02:10 10° ENE visible
31 May 3.7 22:37:14 39° SSE 22:39:02 86° ENE 22:43:49 10° NNW visible
01 Jun 5.2 21:41:32 15° ESE 21:44:19 25° ENE 21:48:10 10° NNE visible
01 Jun 5.0 23:20:25 28° SW 23:21:52 35° W 23:26:13 10° NNW visible
02 Jun 3.9 22:24:45 33° SE 22:26:48 65° ENE 22:31:32 10° N visible
03 Jun 6.2 00:03:38 12° WSW 00:04:59 13° W 00:07:10 10° WNW visible
03 Jun 5.5 21:29:04 11° ESE 21:32:11 20° ENE 21:35:33 10° NNE visible
03 Jun 4.5 23:07:57 33° SSW 23:09:34 46° W 23:14:10 10° NNW visible
04 Jun 4.2 22:12:17 26° SE 22:14:36 48° ENE 22:19:11 10° N visible
04 Jun 5.9 23:51:09 15° WSW 23:52:36 17° W 23:55:45 10° NW visible
05 Jun 5.8 21:17:23 10° E 21:20:05 15° ENE 21:22:45 10° NNE visible
05 Jun 4.1 22:55:29 36° SSW 22:57:17 62° W 23:02:01 10° NNW visible
